Location: Rockford
(42.2710°N, 89.0940°W)
Time: 02:24:31
(UTC-05:00)

Daily predictions for brighter satellites

Satellite Brightness Start Highest point End
(mag) Time Altitude Azimuth Time Altitude Azimuth Time Altitude Azimuth
Cosmos 1689 Rocket 4.2 00:07:53 27° NNE 00:07:53 27° NNE 00:09:48 10° N
ALOS 2 2.9 00:09:33 58° ENE 00:09:33 58° ENE 00:13:50 10° N
CZ-4B R/B 2.6 00:11:20 42° NE 00:11:20 42° NE 00:14:13 10° N
ISS -0.4 00:08:37 10° NW 00:10:54 17° N 00:13:11 10° NE
Cosmos 1697 Rocket 3.7 00:05:50 10° N 00:11:06 37° ENE 00:13:02 29° E
Cosmos 1818 3.5 00:09:20 10° NW 00:14:46 65° WSW 00:15:06 63° SW
CENTAUR R/B 3.3 00:16:44 33° ESE 00:16:44 33° ESE 00:22:25 10° NE
Cosmos 2082 Rocket 2.3 00:16:38 55° ESE 00:16:50 56° ESE 00:22:23 10° NNE
Cosmos 1833 Rocket 3.2 00:17:26 43° ESE 00:17:26 43° ESE 00:22:41 10° NE
Landsat 5 3.9 00:18:23 51° NE 00:18:23 51° NE 00:21:58 10° N
H-2A R/B 2.9 00:15:17 10° NNE 00:18:16 51° NNE 00:18:16 51° NNE
Cosmos 1656 3.9 00:20:18 10° NNW 00:25:58 62° ENE 00:27:08 51° ESE
Cosmos 1743 Rocket 3.6 00:28:38 76° NNE 00:28:38 76° NNE 00:32:47 10° N
Cosmos 1378 4.2 00:31:15 43° NW 00:31:15 43° NW 00:34:17 10° N
Cosmos 1553 Rocket 4.1 00:24:49 10° NNW 00:31:08 67° W 00:32:33 52° SSW
Cosmos 1076 Rocket 4.5 00:32:50 37° WNW 00:32:52 37° WNW 00:36:51 10° N
Meteor 2-2 Rocket 4.5 00:27:28 10° N 00:33:10 61° ENE 00:34:11 53° ESE
NOSS 3-2 (C) 4.1 00:30:29 22° WSW 00:34:23 53° NW 00:41:00 10° NNE
Lacrosse 5 rocket 3.5 00:31:21 10° NNW 00:34:55 25° NNE 00:38:02 13° E
Cosmos 1437 Rocket 4.1 00:33:49 10° N 00:36:49 32° NE 00:36:49 32° NE
Cosmos 1674 4.3 00:38:42 28° NE 00:38:42 28° NE 00:41:03 10° NNE
Cosmos 841 Rocket 3.3 00:32:20 10° NNW 00:37:38 86° WSW 00:37:57 79° S
Cosmos 2221 4.2 00:34:32 10° NW 00:37:48 23° W 00:37:48 23° W
Cosmos 724 4.1 00:37:43 68° SSW 00:38:29 84° ESE 00:44:24 10° NNE
Cosmos 1354 Rocket 3.8 00:41:30 78° SSW 00:41:53 90° WNW 00:47:13 10° NNE
CZ-2C R/B 3.3 00:37:35 10° NNE 00:42:46 40° E 00:43:03 40° ESE
Cosmos 1500 Rocket 3.7 00:44:59 69° N 00:44:59 69° N 00:48:50 10° N
Cosmos 1503 Rocket 3.9 00:45:25 77° SSW 00:45:50 87° WNW 00:51:11 10° NNE
Cosmos 1328 Rocket 4.0 00:43:12 10° NNW 00:47:05 56° WNW 00:47:05 56° WNW
Cosmos 1867 4.3 00:49:21 34° WSW 00:51:16 49° NW 00:56:37 10° NNE
Meteor 2-20 4.4 00:52:00 59° SSW 00:53:13 77° W 00:59:25 10° N
Cosmos 2266 Rocket 4.0 00:53:45 57° SSW 00:55:09 80° W 01:01:36 10° N
In-Cosmos 22 4.3 00:57:00 58° WSW 00:57:50 66° WNW 01:03:31 10° N
SL-16 R/B 4.1 00:54:58 10° N 00:59:30 24° NE 01:03:55 10° ESE
Cosmos 2315 Rocket 4.0 00:54:43 10° N 01:01:04 78° E 01:02:23 58° SSE
Lacrosse 5 1.7 00:57:43 10° NW 01:02:49 90° SW 01:02:51 89° SSE
Cosmos 1515 Rocket 4.2 01:00:23 10° NNW 01:04:15 47° WNW 01:04:15 47° WNW
Cosmos 2058 4.1 01:05:34 34° ENE 01:05:34 34° ENE 01:08:50 10° NNE
Cosmos 2322 Rocket 3.8 01:04:10 10° N 01:09:02 29° NE 01:12:45 15° ESE
Helios 1A Rocket 3.6 01:05:57 10° N 01:09:32 49° NW 01:09:32 49° NW
MOS 1-B Rocket 4.4 01:07:31 44° SSE 01:10:04 77° ENE 01:16:33 10° N
Cosmos 540 Rocket 3.3 01:23:24 10° NNW 01:28:36 81° WSW 01:28:52 78° SSW
CZ-2C R/B 3.2 01:31:01 58° SSE 01:32:09 80° ENE 01:37:57 10° N
Cosmos 2151 3.3 01:34:00 57° NW 01:34:00 57° NW 01:37:50 10° N
Cosmos 1328 4.3 01:36:37 58° NNW 01:36:37 58° NNW 01:39:59 10° N
Cosmos 1805 Rocket 3.5 01:36:22 81° NE 01:36:22 81° NE 01:40:39 10° N
Cosmos 1980 Rocket 2.0 01:30:56 10° NNW 01:36:35 77° WSW 01:37:16 67° SSW
Cosmos 1633 Rocket 3.4 01:41:33 57° E 01:41:33 57° E 01:45:54 10° NNE
Cosmos 332 Rocket 3.6 01:38:45 10° NNW 01:43:34 81° WSW 01:43:36 81° WSW
Cosmos 1437 4.2 01:45:44 39° NNE 01:45:44 39° NNE 01:47:56 10° N
Cosmos 1151 Rocket 4.3 01:41:06 10° NNW 01:44:10 29° WNW 01:44:10 29° WNW
SL-08 R/B 4.4 01:43:32 54° SSE 01:44:58 78° E 01:51:07 10° N
Cosmos 1300 3.2 01:43:57 10° N 01:47:07 59° N 01:47:07 59° N
ISS -1.1 01:44:46 10° NW 01:46:06 21° NW 01:46:06 21° NW
Cosmos 1707 Rocket 3.6 01:46:08 10° NNW 01:50:12 70° WNW 01:50:12 70° WNW
Cosmos 2344 4.4 01:45:49 20° WSW 01:51:13 50° NW 02:00:07 10° NNE
Aureole 1 Rocket 4.1 01:46:27 10° NW 01:51:18 46° WSW 01:51:38 46° WSW
Cosmos 1666 Rocket 3.4 01:54:02 82° NW 01:54:02 82° NW 01:58:16 10° N
Cosmos 1697 Rocket 3.6 01:49:57 10° NW 01:54:45 33° W 01:54:45 33° W
Cosmos 1726 2.6 01:51:24 10° N 01:54:26 58° N 01:54:26 58° N
Cosmos 2242 Rocket 3.5 01:52:40 10° N 01:57:05 77° E 01:57:15 75° ESE
Meteor 1-11 4.2 01:57:16 57° SSW 01:58:32 83° WNW 02:04:23 10° N
ATLAS 5 CENTAUR R/B 2.8 02:00:28 32° ESE 02:00:44 33° ESE 02:05:20 10° NE
Cosmos 2082 Rocket 3.9 01:58:27 17° W 02:01:18 24° NW 02:05:52 10° N
Cosmos 1833 Rocket 4.1 01:59:06 22° W 02:01:26 30° NW 02:06:21 10° N
Cosmos 1470 Rocket 4.0 02:04:26 47° ESE 02:04:55 50° E 02:09:11 10° NNE
CENTAUR R/B 3.2 02:03:52 29° WSW 02:06:55 50° NW 02:13:41 10° NNE
Cosmos 1933 Rocket 3.9 02:08:34 50° ESE 02:09:04 53° E 02:13:22 10° NNE
Lacrosse 5 rocket 1.8 02:10:12 10° NW 02:13:41 53° W 02:13:41 53° W
Cosmos 1455 3.1 02:10:56 10° N 02:14:32 41° ENE 02:15:01 38° E
ASTEX 1 3.7 02:10:42 10° N 02:15:29 50° W 02:16:09 47° WSW
Sich 1 3.3 02:16:15 54° W 02:16:26 55° W 02:20:48 10° N
Cosmos 1626 3.0 02:18:21 40° E 02:18:31 40° E 02:22:04 10° NNE
Cosmos 968 Rocket 3.6 02:19:56 51° WSW 02:20:58 63° WNW 02:26:06 10° NNE
CZ-2C R/B 4.0 02:18:12 10° N 02:22:50 28° WNW 02:24:34 24° W
Landsat 4 3.6 02:24:57 75° NW 02:24:57 75° NW 02:28:28 10° NNW
Cosmos 1386 Rocket 4.4 02:27:54 44° SSW 02:29:59 75° W 02:36:08 10° N
Cosmos 371 Rocket 3.8 02:28:24 10° NW 02:32:53 40° WSW 02:32:53 40° WSW
Cosmos 304 Rocket 4.1 02:32:46 10° NNW 02:37:35 62° ENE 02:40:21 24° SE
ATLAS CENTAUR R/B 3.5 02:35:34 10° NNW 02:39:48 31° NE 02:43:44 10° ESE
USA 161 3.8 02:43:22 15° E 02:43:42 16° ENE 02:45:16 10° NNE
SL-16 R/B 2.3 02:38:25 10° NNW 02:43:59 58° WSW 02:45:43 41° SSW
Cosmos 1862 Rocket 3.5 02:39:53 10° NNW 02:44:22 74° W 02:45:15 55° SSW
Cosmos 2322 Rocket 2.5 02:47:55 10° NW 02:53:14 44° WSW 02:54:31 38° SW
Meteor 1-4 Rocket 3.2 02:50:35 10° NNW 02:54:04 43° W 02:54:04 43° W
CZ-2D R/B 4.0 02:52:37 10° NE 02:56:48 23° E 03:00:59 10° SE
Cosmos 1709 Rocket 4.0 02:55:55 34° SSW 02:58:50 73° W 03:05:06 10° N
ATLAS 2A CENTAUR R/B 4.4 02:56:25 19° S 03:00:13 25° SE 03:19:20 10° E
Cosmos 923 Rocket 4.2 02:59:58 10° NNW 03:05:01 49° WSW 03:06:44 36° SSW
SL-16 R/B 3.6 03:01:03 10° SE 03:06:58 46° ENE 03:12:54 10° N
ERS-2 2.6 03:05:14 10° N 03:08:49 46° WNW 03:09:29 41° WSW
Cosmos 2298 Rocket 4.5 03:06:07 26° S 03:08:57 56° ESE 03:14:11 10° NNE
Cosmos 1271 Rocket 3.8 03:06:19 10° NNW 03:09:21 28° W 03:09:21 28° W
AQUA 3.8 03:05:34 10° N 03:10:20 75° WNW 03:12:19 35° SSW
Cosmos 1869 Rocket 3.9 03:08:33 29° SSE 03:10:41 63° E 03:15:05 10° NNE
Cosmos 1680 Rocket 3.6 03:07:32 10° NNW 03:12:38 55° WSW 03:15:02 30° SSW
Spot 4 Rocket 4.3 03:07:34 10° NNE 03:12:42 66° ESE 03:15:44 25° S
NPP 3.8 03:08:41 10° N 03:13:59 61° WNW 03:16:33 30° SW
Cosmos 1869 3.8 03:11:10 10° NNW 03:14:55 41° W 03:15:32 38° WSW
Cosmos 2292 Rocket 3.3 03:18:17 43° WSW 03:18:55 50° WNW 03:22:50 10° N
Cosmos 2221 Rocket 3.5 03:16:27 10° N 03:21:00 80° W 03:23:36 25° S
Cosmos 2360 Rocket 2.1 03:15:42 10° NNW 03:21:20 74° WSW 03:26:51 10° SSE
USA 215 3.2 03:18:40 10° NE 03:25:15 83° SE 03:29:34 23° SW
CBERS-1 4.3 03:20:34 10° N 03:25:35 56° WNW 03:28:10 27° SW
Cosmos 2227 Rocket 4.4 03:24:09 10° SE 03:27:51 18° E 03:31:35 10° ENE
ARIANE 5 R/B 2.7 03:26:42 10° NNE 03:31:47 68° ESE 03:35:28 18° S
IRS-1C 4.3 03:27:30 10° N 03:32:47 61° WNW 03:35:54 24° SW
EO 1 Del DPAF 3.5 03:29:57 13° SSE 03:33:23 73° ENE 03:37:18 10° N
OE (NEXTSAT) 4.5 03:33:56 36° SW 03:35:08 61° SSE 03:38:43 10° ENE
Resurs 1-4 Rocket 2.7 03:30:51 10° NNE 03:36:05 53° E 03:40:52 12° S
Cosmos 1703 Rocket 3.9 03:35:55 10° NNW 03:40:05 46° W 03:42:13 25° SSW
Cosmos 1898 Rocket 3.4 03:37:55 22° SSW 03:41:17 90° ESE 03:46:30 10° NNE
IRS-1D 3.7 03:36:43 10° NNE 03:42:04 76° ESE 03:46:22 16° S
Cosmos 1937 Rocket 3.8 03:39:01 18° S 03:42:59 67° ESE 03:48:15 10° NNE
Cosmos 2219 3.2 03:41:17 21° SSW 03:45:11 83° WNW 03:50:59 10° NNE
SL-23 DEB 4.0 03:42:07 10° NW 03:45:15 61° NNE 03:49:16 10° ESE
ATLAS 5 CENTAUR R/B 2.9 03:42:01 17° WSW 03:45:20 37° NW 03:50:17 10° NNE
Cosmos 2322 4.0 03:40:59 10° NW 03:46:28 47° WSW 03:51:51 10° S
H-2A ROCKET BODY 3.5 03:50:06 11° S 03:50:06 11° S 03:50:20 10° SSE
Cosmos 1455 4.3 03:48:13 10° WNW 03:49:52 12° W 03:50:02 12° W
Okean 1-7 3.1 03:46:48 10° NNW 03:51:06 57° W 03:54:23 16° S
Abrixas 3.6 03:50:16 10° NW 03:53:16 46° NNE 03:56:16 10° E
Coronas F rocket 4.2 03:51:57 10° SE 03:53:38 15° E 03:55:20 10° NE
Cosmos 1626 4.3 03:53:04 12° W 03:54:10 13° WNW 03:56:00 10° NW
SL-08 ROCKET BODY 4.4 03:50:22 16° SSW 03:55:23 73° W 04:01:34 10° N
Cosmos 2297 Rocket 4.2 03:55:49 10° SSE 04:00:11 23° ESE 04:04:34 10° NE
Cosmos 389 Rocket 2.6 03:57:32 10° N 04:01:14 82° ENE 04:04:55 10° SSE
ADEOS 4.3 03:56:58 10° N 04:01:46 38° WNW 04:05:24 16° SW
Meteor 1-26 Rocket 4.3 03:56:48 10° NNW 04:02:11 54° W 04:07:32 10° S
Cosmos 1782 4.3 03:59:50 10° N 04:03:36 38° ENE 04:07:19 10° SSE
OAO 3 Rocket 4.5 04:03:58 18° SW 04:04:59 19° SSW 04:08:16 10° SSE
USA 129 1.2 04:06:13 47° NW 04:06:13 47° NW 04:07:28 10° NNW
NOSS 3-1 (C) 4.2 04:01:32 10° S 04:07:05 47° ESE 04:13:11 10° NE
Cosmos 2150 Rocket 4.4 04:04:11 17° SW 04:08:11 52° WNW 04:13:29 10° N
Cosmos 2341 Rocket 4.4 04:02:26 10° S 04:08:42 69° E 04:15:03 10° NNE
Cosmos 2333 Rocket 3.1 04:04:45 10° NNW 04:10:22 53° ENE 04:15:57 10° SE
Nadezhda 3 Rocket 4.0 04:06:13 10° N 04:12:24 89° W 04:18:34 10° S
Sich 1 Rocket 4.5 04:09:46 10° SSE 04:13:59 49° E 04:18:14 10° NNE
USA 161 3.6 04:14:37 10° W 04:14:37 10° W 04:14:38 10° W
SWAS 4.4 04:10:43 10° NNW 04:15:02 81° WSW 04:19:20 10° SSE
Cosmos 1892 2.7 04:11:35 10° S 04:15:27 86° E 04:19:20 10° N
ATLAS CENTAUR R/B 2.2 04:14:47 10° NW 04:18:55 33° WSW 04:22:44 10° S
Cosmos 2154 Rocket 4.1 04:12:56 10° S 04:19:16 80° W 04:25:39 10° N
CZ-4B R/B 4.4 04:16:50 10° NNE 04:20:41 37° E 04:24:42 10° SSE
COSMOS 2428 2.9 04:15:27 10° NW 04:20:54 49° WSW 04:26:20 10° S
Cosmos 1674 Rocket 3.6 04:18:12 10° N 04:22:32 82° E 04:26:53 10° S
Cosmos 1340 Rocket 3.2 04:19:37 10° S 04:23:36 64° E 04:27:34 10° NNE
GPS 2-05 Rocket1 4.4 04:23:51 14° SW 04:25:02 16° SSW 04:27:12 10° SSE
SME Rocket 3.5 04:20:53 10° S 04:27:00 70° WSW 04:31:18 10° NNW
CZ-2C R/B 3.7 04:23:14 10° SSE 04:27:44 85° WSW 04:32:22 10° NNW
Cosmos 2237 Rocket 2.7 04:24:43 10° NNW 04:30:24 67° ENE 04:36:03 10° SSE
USA 229 DEB 4.3 04:28:24 10° WSW 04:35:04 48° NW 04:41:50 10° NNE
USA 229 4.3 04:28:29 10° WSW 04:35:10 48° NW 04:41:56 10° NNE
UNK 4.5 04:31:12 10° SSW 04:35:17 32° W 04:39:25 10° NNW
Cosmos 292 Rocket 4.4 04:32:07 10° NW 04:36:30 36° WSW 04:40:49 10° SSW
CZ-2D R/B 2.6 04:32:03 10° N 04:37:03 45° WNW 04:42:05 10° SW
AVUM R/B 3.2 04:35:27 13° SW 04:37:05 32° WNW 04:39:06 10° N
Okean O Rocket 1.6 04:32:43 10° NNE 04:37:10 84° WNW 04:41:33 10° SSW
Cosmos 990 Rocket 4.3 04:35:30 10° SW 04:40:33 54° WNW 04:45:37 10° N
Cosmos 2219 Rocket 2.2 04:35:36 10° NNW 04:41:10 68° WSW 04:46:42 10° SSE
Cosmos 1356 Rocket 3.5 04:38:58 10° S 04:43:02 78° E 04:47:04 10° NNE
UNKNOWN OBJECT B 3.5 04:39:52 10° N 04:43:27 37° WNW 04:47:04 10° SW
Intercosmos 24 Rocket 4.1 04:39:49 10° S 04:43:30 86° W 04:47:08 10° N
CZ-2D R/B 3.6 04:39:32 10° N 04:43:35 55° WNW 04:47:30 10° SSW
Meteor 2-10 Rocket 3.7 04:41:32 10° NNW 04:46:28 51° W 04:51:32 10° S
GP-B 3.2 04:43:02 10° N 04:47:30 84° E 04:51:57 10° S
ADEOS II 4.0 04:44:57 10° NE 04:49:34 30° E 04:54:08 10° SSE
SL-16 R/B 3.4 04:45:21 10° SSW 04:50:44 30° W 04:56:09 10° NW
